Погода в Александровке

Россия / Ростовская область     46°47′07″N   38°59′50″E
темп.,
°C
ветер,
м/с
пор.,
м/с
влажн.,
%
обл.,
%
осадки,
мм/ч
давл.,
гПа
погр.,
м
2 августа, пн
пн200:00+26ссв46507 0.0 101094
03:00+25св35510 0.0 101068
06:00+24ссв11530 0.0 101113
09:00+32всв34293 0.0 1011565
12:00+37вюв34180 0.0 10103054
15:00+37ссз441998 0.0 10082621
18:00+34сз682621 0.0 1008483
21:00+28сз484764 0.0 1009121
3 августа, вт
вт300:00+27ссз334815 0.0 101030
03:00+26ссз47508 0.0 1009101
06:00+25ссз34542 0.0 101066
09:00+33ссз22331 0.0 1010550
12:00+37сз44240 0.0 10101719
15:00+36зсз65210 0.0 10101551
18:00+33зсз56320 0.0 1009892
21:00+27зсз511620 0.0 1011276
4 августа, ср
ср400:00+24ссв5116796 0.0 1013370
03:00+22с366618 0.0 1013142
06:00+22ссз367299 0.2 1014175
09:00+26ссв445683 1.3 1014433
12:00+29ссз344178 0.4 1014789
15:00+28вюв234672 0.9 1014615
18:00+31с233548 0.1 1013963
21:00+25ссв11561 0.1 101414
5 августа, чт
чт500:00+24ссв34565 0.0 101456
03:00+23св37577 0.0 1014122
06:00+22в3757100 0.0 1015158
09:00+29в3542100 0.0 1015679
12:00+33в443111 0.0 10142231
15:00+36св442554 0.0 10123286
18:00+33ссв672942 0.0 1011971
21:00+28св47395 0.0 1012144
6 августа, пт
пт600:00+26всв513335 0.0 1011289
03:00+26в5133587 0.0 1011330
06:00+24в513411 0.1 1011322
09:00+30вюв7102864 0.1 1011680
12:00+36в88235 0.0 10092268
15:00+37в882013 0.0 10083149
18:00+36в8821100 0.0 10072460
21:00+31всв8152465 0.0 1008651